TimePDT,TemperatureF,Dew PointF,Humidity,Sea Level PressureIn,VisibilityMPH,Wind Direction,Wind SpeedMPH,Gust SpeedMPH,PrecipitationIn,Events,Conditions,WindDirDegrees,DateUTC
12:53 AM,51.1,46.0,83,30.04,10.0,West,10.4,-,N/A,,Clear,260,2013-07-12 07:53:00
1:53 AM,52.0,46.0,80,30.04,10.0,West,8.1,-,N/A,,Clear,270,2013-07-12 08:53:00
2:53 AM,51.1,45.0,80,30.04,10.0,West,8.1,-,N/A,,Clear,260,2013-07-12 09:53:00
3:53 AM,50.0,45.0,83,30.04,10.0,West,5.8,-,N/A,,Clear,270,2013-07-12 10:53:00
4:53 AM,51.1,46.0,83,30.04,10.0,WSW,5.8,-,N/A,,Partly Cloudy,250,2013-07-12 11:53:00
5:53 AM,51.1,46.0,83,30.04,10.0,WSW,4.6,-,N/A,,Mostly Cloudy,240,2013-07-12 12:53:00
6:53 AM,54.0,46.9,77,30.04,10.0,West,5.8,-,N/A,,Mostly Cloudy,270,2013-07-12 13:53:00
7:53 AM,55.0,46.9,74,30.04,10.0,WSW,5.8,-,N/A,,Mostly Cloudy,250,2013-07-12 14:53:00
8:53 AM,57.9,48.9,72,30.04,10.0,Variable,5.8,-,N/A,,Mostly Cloudy,0,2013-07-12 15:53:00
9:53 AM,59.0,50.0,72,30.04,10.0,North,6.9,-,N/A,,Partly Cloudy,360,2013-07-12 16:53:00
10:53 AM,60.1,50.0,69,30.04,10.0,North,5.8,-,N/A,,Clear,360,2013-07-12 17:53:00
11:53 AM,61.0,48.9,64,30.05,10.0,North,4.6,-,N/A,,Clear,10,2013-07-12 18:53:00
12:53 PM,61.0,48.0,62,30.05,10.0,NE,4.6,-,N/A,,Partly Cloudy,40,2013-07-12 19:53:00
1:53 PM,60.1,48.0,64,30.06,10.0,North,6.9,-,N/A,,Scattered Clouds,350,2013-07-12 20:53:00
2:53 PM,60.1,48.9,67,30.07,10.0,NW,5.8,-,N/A,,Overcast,320,2013-07-12 21:53:00
3:53 PM,64.0,51.1,63,30.07,10.0,North,5.8,-,N/A,,Mostly Cloudy,350,2013-07-12 22:53:00
4:53 PM,63.0,50.0,63,30.07,10.0,WNW,10.4,-,N/A,,Overcast,300,2013-07-12 23:53:00
5:53 PM,62.1,48.9,62,30.07,10.0,WNW,10.4,-,N/A,,Partly Cloudy,300,2013-07-13 00:53:00
6:53 PM,61.0,46.9,60,30.07,10.0,WNW,13.8,-,N/A,,Clear,300,2013-07-13 01:53:00
7:53 PM,59.0,45.0,60,30.08,10.0,West,11.5,-,N/A,,Clear,280,2013-07-13 02:53:00
8:53 PM,55.9,44.1,64,30.09,10.0,West,10.4,-,N/A,,Clear,280,2013-07-13 03:53:00
9:53 PM,53.1,46.0,77,30.10,10.0,West,6.9,-,N/A,,Clear,280,2013-07-13 04:53:00
10:53 PM,50.0,45.0,83,30.11,10.0,WNW,5.8,-,N/A,,Clear,300,2013-07-13 05:53:00
11:53 PM,50.0,46.0,86,30.12,10.0,West,3.5,-,N/A,,Clear,270,2013-07-13 06:53:00